CAPE
0 0 0 0 0 0 0 3 0 0 0 3 3 4 0 0 1 2 1 0 0 1 2 1 1 1 1 0 0 0 0 0 97 496 1050 814 696 636 559 381 240 342 468 380
0 0 0 2 1 0 1 0 0 0 1 5 0 1 0 2 4 1 0 0 4 4 5 3 1 2 1 0 1 1 1 0 4 163 807 1054 940 886 692 574 521 484 410 361
0 0 0 0 0 0 0 2 5 0 0 1 0 1 2 2 5 3 5 1 3 5 2 1 3 2 3 2 1 1 2 0 63 569 732 710 987 915 833 702 816 684 500 470
1 0 0 0 1 0 0 1 6 1 2 0 0 1 2 0 1 1 1 1 3 3 1 2 1 1 2 1 2 3 2 1 0 162 563 575 773 979 888 752 712 686 534 459
0 0 0 0 0 0 0 0 11 9 4 15 2 0 0 1 1 2 1 1 1 1 1 1 1 2 1 1 3 4 5 5 5 1 7 424 439 781 831 695 643 641 625 468
0 0 0 0 0 0 0 0 3 2 0 1 0 0 0 0 3 2 0 0 0 0 0 1 1 1 1 2 3 4 4 4 2 3 1 7 292 661 709 635 453 388 410 378
0 0 0 0 0 0 0 0 8 0 0 0 0 0 0 0 0 0 1 0 0 0 0 0 0 1 2 2 3 2 1 1 2 1 0 0 0 220 594 444 323 283 189 133
0 0 0 0 3 3 3 4 4 0 1 0 0 0 0 0 0 0 0 0 0 0 0 0 0 1 1 2 1 1 2 3 3 3 3 1 2 1 26 196 222 158 91 43
0 0 0 4 3 7 22 9 3 0 0 0 0 0 0 0 0 0 0 0 0 0 0 0 0 1 1 1 1 1 2 2 3 2 4 6 5 2 0 1 1 6 16 10
0 0 1 6 6 12 3 3 2 0 0 0 0 0 0 0 0 0 0 0 0 0 0 0 0 0 0 1 1 1 2 2 2 4 3 3 5 6 9 7 4 2 0 0
2 2 0 1 2 1 4 0 0 0 0 0 0 0 0 0 0 0 0 0 0 0 0 0 0 0 0 0 1 1 2 2 2 2 3 2 1 2 4 2 4 8 7 5
0 0 1 1 1 2 4 0 0 0 0 0 0 0 0 0 0 0 0 0 0 0 0 0 0 0 0 0 0 0 0 1 1 2 2 3 4 2 0 0 0 3 2 5
0 0 0 0 0 0 1 1 0 0 0 0 0 0 0 0 0 0 0 0 0 0 0 0 0 0 0 0 0 0 0 0 0 1 1 3 4 5 4 0 0 0 1 2
0 0 0 0 0 0 0 0 1 0 0 0 0 0 0 0 0 0 0 0 0 0 0 0 0 0 0 0 0 0 0 0 0 1 1 1 1 1 2 4 4 3 1 3
0 0 0 0 0 0 0 0 0 0 0 0 0 0 0 0 0 0 0 0 0 0 0 0 0 0 0 0 0 0 0 0 0 0 1 0 0 1 1 1 1 1 2 1
0 0 0 0 0 0 0 0 0 0 0 0 0 0 0 0 0 0 0 0 0 0 0 0 0 0 0 0 0 0 0 0 0 0 0 0 1 0 1 1 2 2 2 1
0 0 0 0 0 0 0 0 0 0 0 0 0 0 0 0 0 0 0 0 0 0 0 0 0 0 0 0 0 1 0 0 0 1 0 0 0 0 0 0 1 1 1 0
0 0 0 0 0 0 0 0 0 0 0 0 0 0 0 0 0 0 0 0 0 0 0 0 0 0 0 0 0 0 0 0 0 0 0 0 0 0 0 0 0 0 0 1
0 0 0 0 0 0 0 0 0 0 0 0 0 0 0 0 0 0 0 0 0 0 0 0 0 0 0 0 0 0 0 0 0 0 0 0 0 0 0 0 0 2 0 0
0 0 0 0 0 0 0 0 0 0 0 0 0 0 0 0 0 0 0 0 0 0 0 0 0 0 0 0 0 0 0 0 0 0 0 0 0 0 0 0 0 2 2 0
0 0 0 0 0 0 0 0 0 0 0 0 0 0 0 0 0 0 0 0 0 0 0 0 0 0 0 0 0 1 0 0 0 0 0 0 0 2 4 2 1 0 0 0
0 0 0 0 0 0 0 0 0 0 0 0 0 0 0 0 0 0 0 0 0 0 0 0 0 0 0 0 0 0 0 0 0 0 0 0 1 1 2 0 0 0 0 0
0 0 0 0 0 0 0 0 0 0 0 0 0 0 0 0 0 0 0 0 0 0 0 0 0 0 0 0 0 0 0 0 0 0 0 0 1 0 1 2 0 0 0 0
0 0 0 0 0 0 0 0 0 0 0 0 0 0 0 0 0 0 0 0 0 0 0 0 0 0 0 0 0 0 0 0 0 0 0 0 1 0 0 1 0 0 1 1
0 0 0 0 0 0 0 0 0 0 0 0 0 0 0 0 0 0 0 0 0 0 0 0 0 0 0 0 0 0 0 0 0 0 0 0 0 1 1 0 2 3 0 0
0 0 0 0 0 0 0 0 0 0 0 0 0 0 0 0 0 0 0 0 0 0 0 0 0 0 0 0 0 0 0 0 0 0 0 0 0 0 0 0 0 2 1 0
0 0 0 0 0 0 0 0 0 0 0 0 0 0 0 0 0 0 0 0 0 0 0 0 0 0 0 0 0 0 0 0 0 0 0 0 0 0 0 0 0 2 1 1
CIN
0 0 0 0 0 0 0 -2 -1 -2 0 0 0 0 0 0 -1 -1 -1 -2 0 0 0 0 0 0 0 0 0 0 0 0 -259 -58 -9 -7 -12 -14 -10 -23 -34 -14 -1 -5
0 0 0 -1 0 0 -1 0 0 0 -1 0 -1 0 0 0 -1 -1 0 -1 0 0 0 0 0 0 0 0 0 0 0 0 -254 -178 -8 -8 -1 -1 -2 -9 -15 -2 -1 -3
0 0 0 0 0 0 0 -1 0 0 0 0 0 0 0 0 0 0 0 0 0 0 0 0 0 0 0 0 0 0 0 0 -297 -23 -9 -8 -8 -3 -1 -1 -1 -2 -3 -2
-5 0 0 0 -1 0 0 -2 -6 -2 -2 0 0 0 0 0 0 0 0 0 0 0 0 0 0 0 0 0 0 0 0 0 0 -233 -32 -20 -3 -2 0 -1 -1 -2 -13 -7
0 0 0 0 0 -1 0 -1 -5 -4 -6 -3 -4 0 0 0 0 0 0 0 0 0 0 0 0 0 0 0 0 0 0 0 0 0 -104 -88 -37 -4 -2 0 -3 -2 -3 -6
0 0 0 0 0 0 0 0 -5 -2 0 -5 0 0 0 0 0 0 0 0 0 0 0 0 0 0 0 0 0 0 0 0 0 0 0 -122 -95 -4 -10 -1 -27 -39 -22 -10
0 0 0 0 -1 -4 0 0 -7 0 0 0 0 0 0 0 0 0 -2 0 0 0 0 0 0 0 0 0 0 0 0 0 0 0 0 0 0 -70 -1 -3 -23 -49 -68 -78
0 -1 0 0 -2 -1 -6 -9 -1 0 -2 0 0 0 0 0 0 0 0 0 0 0 0 0 0 0 0 0 0 0 0 0 0 0 0 0 0 0 -35 -10 -4 -26 -64 -114
0 0 0 -11 -20 -15 -6 -1 -2 0 0 0 0 0 0 0 0 0 0 0 0 0 0 0 0 0 0 0 0 0 0 0 0 0 0 0 0 0 0 0 -2 -24 -38 -85
-1 -4 -3 -1 -2 -1 -2 -1 -1 0 0 0 0 0 0 0 0 0 0 0 0 0 0 0 0 0 0 0 0 0 0 0 0 0 0 0 0 0 0 0 0 0 0 0
-1 -5 0 -2 -2 -2 -3 0 0 0 0 0 0 0 0 0 0 0 0 0 0 0 0 0 0 0 0 -1 0 0 0 0 0 0 0 0 0 0 0 0 0 0 0 0
-1 -2 -1 -1 -2 0 -2 -1 0 0 0 0 0 0 0 0 0 0 0 0 0 0 0 0 0 0 0 0 0 0 0 0 0 0 0 0 0 0 0 0 0 0 0 0
0 0 0 0 0 0 -1 0 0 0 0 0 0 0 0 0 0 0 0 0 0 0 0 0 0 0 0 0 0 0 0 0 0 0 0 0 0 0 0 0 0 0 0 0
0 0 0 0 0 0 0 0 -1 0 0 0 0 0 0 0 0 0 0 0 0 0 0 0 0 0 0 0 0 0 0 0 0 0 0 0 0 0 0 0 0 0 0 0
0 0 0 0 0 0 0 0 0 0 0 0 0 0 0 0 0 0 0 0 0 0 0 0 0 0 0 0 0 0 0 0 -1 0 -1 0 0 0 0 0 0 0 0 0
0 0 0 0 0 0 0 0 0 0 0 0 0 0 0 0 0 0 0 0 0 0 0 0 0 0 0 0 0 0 0 0 0 0 0 -1 -1 0 0 0 0 0 0 0
0 0 0 0 0 0 0 0 0 0 0 0 0 0 0 0 0 0 0 0 0 0 0 0 0 0 0 0 0 0 0 0 0 0 0 -1 0 0 0 0 0 0 0 0
0 0 0 0 0 0 0 0 0 0 0 0 0 0 0 0 0 0 0 0 0 0 0 0 0 0 0 0 0 -1 0 0 0 0 0 -2 -1 0 -1 0 0 -1 0 0
0 0 0 0 0 0 0 0 0 0 0 0 0 0 0 0 0 0 0 0 0 0 0 0 0 0 0 0 0 0 0 0 0 0 0 0 0 0 0 0 -2 -1 -1 -1
0 0 0 0 0 0 0 0 0 0 0 0 0 0 0 0 0 0 0 0 0 0 0 0 0 0 0 0 0 -1 0 -1 0 0 0 0 -1 0 0 -1 -1 -1 -2 -1
0 0 0 0 0 0 0 0 0 0 0 0 0 0 0 0 0 0 0 0 0 0 0 0 0 0 0 0 0 0 0 0 0 0 0 0 0 -2 -2 -2 -3 -4 -2 -2
0 0 0 0 0 0 0 0 0 0 0 0 0 0 0 0 0 0 0 0 0 0 0 0 0 0 0 0 -1 -1 0 0 0 -1 -2 0 -4 -3 -3 0 0 -3 -2 0
0 0 0 0 0 0 0 0 0 0 0 0 0 0 0 0 0 0 0 0 0 0 0 0 0 0 0 0 0 -1 -1 0 0 0 0 -2 -2 -1 -3 -3 -1 0 0 -1
0 0 0 0 0 0 0 0 0 0 0 0 0 0 0 0 0 0 0 0 0 0 0 0 0 0 0 0 0 0 0 0 -1 0 0 0 -1 -1 -1 -1 0 0 -1 -1
0 0 0 0 0 0 0 0 0 0 0 0 0 0 0 0 0 0 0 0 0 0 0 0 0 0 0 0 0 0 0 0 0 0 0 0 0 0 -1 -1 -1 -1 0 0
0 0 0 0 0 0 0 0 0 0 0 0 0 0 0 0 0 0 0 0 0 0 0 0 0 0 0 0 0 0 0 0 0 0 0 0 -1 0 0 -1 0 -1 -1 0
0 0 0 0 0 0 0 0 0 0 0 0 0 0 0 0 0 0 0 0 0 0 0 0 0 0 0 0 0 0 0 0 0 0 0 0 0 0 0 0 -1 -1 0 0
Wind_Speed
33 37 26 17 12 14 14 14 14 21 20 24 25 28 30 33 34 35 35 36 37 38 38 39 40 40 40 41 42 42 44 44 45 37 28 26 24 24 24 23 24 25 23 21
23 20 27 10 10 7 13 14 15 17 17 26 24 27 30 33 34 35 36 36 37 37 38 39 40 40 42 42 42 42 45 45 43 37 33 29 28 26 25 24 25 25 27 25
18 14 17 14 5 8 9 21 17 22 23 25 26 28 29 31 31 33 35 35 36 36 36 38 39 39 40 41 42 42 42 43 43 38 34 33 30 29 29 28 26 28 28 28
16 14 20 9 5 7 10 9 14 13 22 24 24 21 21 24 25 24 29 33 33 33 34 34 35 36 37 38 38 39 39 39 37 36 34 34 33 31 30 30 31 30 30 29
18 25 19 7 7 7 10 13 10 7 13 15 17 12 9 21 19 25 22 21 21 26 28 30 30 31 33 33 34 34 35 36 37 35 35 35 35 34 32 31 34 33 32 32
21 20 24 6 3 7 18 20 11 15 9 6 9 7 11 19 17 19 21 15 22 23 17 18 26 27 27 28 30 31 34 35 35 34 34 35 35 34 33 33 33 33 33 34
26 23 17 1 3 4 28 12 5 9 11 11 7 3 4 13 15 13 16 20 21 15 17 18 18 21 23 24 26 28 29 30 30 31 34 34 35 33 32 33 35 36 36 38
25 18 6 11 10 14 14 6 3 3 5 7 10 10 11 4 11 16 15 16 22 23 22 23 22 23 20 22 24 24 22 23 25 26 28 30 32 34 36 36 35 35 38 40
22 23 14 11 15 13 15 11 4 8 4 5 6 8 7 8 8 12 10 13 10 18 24 29 28 27 23 22 21 20 19 19 20 20 21 23 25 29 31 31 35 38 36 38
19 18 14 20 13 8 10 11 7 11 11 7 6 7 11 12 15 14 16 22 20 18 18 20 27 30 29 25 23 21 20 20 20 20 20 21 21 24 25 28 29 33 35 38
21 21 13 24 21 8 17 9 3 1 5 11 10 8 8 8 16 12 19 18 18 20 19 21 20 18 19 27 27 26 22 21 21 20 20 19 19 20 21 23 25 29 33 36
18 19 23 23 25 19 21 16 4 7 6 14 12 6 9 8 14 10 14 21 25 26 25 23 26 19 18 20 21 25 27 24 22 21 20 20 21 21 21 23 25 27 29 32
22 18 19 15 15 12 12 10 16 24 14 16 23 24 23 34 33 33 30 32 33 33 36 37 37 38 36 40 40 23 17 15 25 28 26 25 24 24 25 26 26 30 32 32
20 17 18 17 17 18 18 15 16 17 17 8 4 21 30 31 36 36 36 33 34 33 35 36 36 37 27 28 35 37 33 23 30 21 22 26 27 26 27 27 28 30 31 31
20 19 19 17 18 18 18 18 17 17 16 16 16 16 15 11 22 34 35 34 35 35 35 35 36 37 34 30 33 33 35 33 33 33 33 31 30 25 25 26 28 29 30 31
21 18 19 19 19 18 18 17 16 16 16 16 16 17 18 19 21 20 22 20 30 38 39 39 37 38 37 33 33 32 31 33 32 32 32 32 31 32 31 29 29 29 30 30
21 20 19 19 19 18 18 16 15 15 14 14 14 13 15 16 19 20 21 23 23 25 24 24 24 21 35 39 38 37 35 33 33 32 33 33 32 32 31 31 31 31 31 32
18 19 18 17 16 16 16 15 15 14 15 14 13 13 14 16 17 16 15 21 22 23 23 23 20 21 25 22 25 33 38 38 36 35 34 34 33 32 32 31 31 31 31 30
17 16 16 15 14 14 13 13 13 13 14 14 13 13 15 16 17 17 15 23 23 22 20 21 21 24 27 30 28 25 29 36 38 38 37 36 34 34 33 32 31 31 31 31
15 14 13 12 12 12 11 11 13 11 12 13 12 12 13 13 16 16 17 22 24 22 17 22 24 24 28 25 34 30 32 34 32 32 31 33 37 37 35 34 33 32 31 30
13 11 11 10 9 9 9 8 9 9 10 11 12 13 11 9 9 13 15 17 21 20 18 24 27 26 26 25 30 29 31 30 31 32 31 31 31 32 34 35 35 33 32 31
10 9 8 7 6 6 6 6 6 6 7 9 10 10 11 10 12 14 16 17 19 21 19 23 25 25 23 22 28 28 28 28 28 29 29 31 31 30 30 31 33 34 33 31
6 5 5 5 4 3 3 3 4 5 5 5 6 7 8 8 12 12 12 15 18 19 19 21 23 23 23 24 26 27 26 26 25 25 27 28 29 29 29 29 29 30 32 32
1 1 1 1 1 1 1 2 3 2 2 4 6 7 8 9 11 13 12 13 14 15 17 17 19 21 21 22 24 25 25 25 25 24 24 25 26 27 27 27 27 26 27 28
3 4 4 4 3 3 3 4 5 5 5 5 6 7 8 9 9 12 13 16 14 14 15 15 16 18 18 19 21 22 22 23 23 22 23 23 23 24 24 25 24 23 24 24
8 8 8 7 7 7 7 7 7 6 6 7 9 9 10 11 11 13 13 13 12 13 13 14 13 15 16 16 18 19 19 19 20 21 21 21 20 21 21 22 22 21 21 21
10 10 12 12 11 10 9 9 11 12 13 13 13 13 13 14 12 12 13 12 12 12 11 11 11 12 13 14 15 15 16 17 18 18 19 19 18 18 18 18 19 18 18 18
Wind_Direction
88 73 29 19 6 353 349 327 313 317 317 315 309 306 310 309 307 303 298 296 293 289 285 279 276 275 273 272 270 268 265 264 263 262 258 259 255 253 254 252 250 253 258 257
107 102 87 82 95 38 351 335 317 305 292 313 305 305 318 315 310 304 300 296 296 294 288 282 278 276 274 272 271 269 264 264 267 260 260 259 261 259 257 255 251 252 252 251
115 111 117 104 22 100 359 344 323 330 314 313 314 312 319 312 306 299 298 301 301 296 293 286 281 281 276 274 272 269 266 265 265 263 260 260 262 262 262 263 262 258 255 256
113 120 104 112 111 107 96 52 341 327 330 328 319 309 311 317 308 297 298 302 302 298 291 291 289 284 281 278 274 271 268 267 270 270 260 260 263 263 266 267 265 263 261 256
113 96 112 98 99 89 90 77 42 11 332 325 316 298 302 326 322 322 310 299 289 294 292 292 294 292 286 282 278 274 271 269 269 271 268 266 265 264 268 269 269 268 268 263
102 107 92 109 291 297 114 84 49 73 50 355 333 343 325 322 322 327 331 324 316 309 287 283 305 297 296 289 284 280 276 274 272 273 272 272 272 268 270 271 271 269 270 268
81 96 112 143 286 118 76 99 21 65 65 67 41 55 300 320 323 329 329 337 339 329 323 317 308 305 309 306 297 292 286 281 279 279 275 275 274 278 275 275 276 273 270 270
52 109 148 99 111 108 104 110 79 17 41 56 74 74 82 350 326 333 335 341 345 347 346 340 336 334 322 318 309 308 303 294 290 286 286 283 278 280 280 279 276 276 274 274
84 83 124 126 100 104 92 94 89 80 28 357 353 352 70 345 341 342 356 352 13 351 350 355 353 355 343 333 323 318 314 312 310 307 305 301 294 290 285 289 286 278 276 277
73 81 112 76 103 128 110 95 99 83 76 64 40 360 341 342 338 338 343 346 345 353 359 359 359 360 357 349 343 341 339 331 324 324 316 311 309 308 302 298 295 291 288 286
15 29 93 38 56 110 66 270 225 140 76 71 64 47 43 14 340 342 340 341 345 349 353 355 355 4 2 358 356 356 347 340 336 332 332 330 328 326 323 319 311 301 299 294
13 352 20 34 18 5 55 76 168 280 296 320 331 348 338 3 56 7 340 342 344 347 348 346 351 354 357 359 1 2 5 356 346 343 341 336 328 326 332 332 329 325 320 313
112 118 101 113 108 109 106 117 92 59 321 326 339 340 337 359 355 354 348 352 354 355 2 5 5 6 359 23 23 354 357 354 3 6 3 356 347 343 335 333 337 337 334 329
122 124 114 110 104 100 100 105 101 95 93 93 12 352 355 357 11 8 7 357 0 356 1 1 2 5 343 346 6 16 3 348 5 350 351 357 359 360 359 356 350 347 347 345
123 121 115 112 109 104 104 102 100 96 92 87 82 77 72 58 1 6 5 3 5 6 5 2 2 5 352 346 358 1 8 3 10 13 14 5 2 345 344 351 353 354 350 351
122 122 115 108 106 105 103 103 99 96 93 89 85 79 76 74 73 72 68 66 36 11 12 12 7 7 2 353 356 359 358 359 359 1 1 2 359 3 355 348 348 346 346 344
120 114 114 109 105 103 100 101 100 97 96 93 90 86 80 74 72 72 69 67 68 67 65 62 60 61 45 17 15 16 9 2 357 355 359 357 356 355 354 354 354 356 355 354
125 119 118 114 110 106 104 102 100 97 95 96 95 89 82 76 72 70 69 68 66 66 64 62 60 63 62 60 59 46 31 21 12 6 1 357 357 355 353 350 351 350 349 346
131 127 122 121 117 115 114 107 102 99 94 94 92 87 81 78 73 70 69 65 63 62 63 60 59 59 56 52 56 58 55 41 31 22 14 7 1 358 356 353 350 348 347 346
136 132 125 122 119 115 115 113 101 104 96 91 90 86 78 76 70 68 67 62 59 59 65 60 57 57 52 54 42 49 47 43 46 48 47 40 24 11 3 359 354 350 347 346
139 137 134 130 128 118 108 109 97 106 92 86 78 72 74 79 83 68 62 60 54 55 59 54 49 51 52 51 44 45 44 44 42 42 42 42 40 38 29 19 3 356 352 349
143 144 142 133 122 118 120 118 106 95 86 70 64 62 59 63 59 56 52 54 48 44 48 44 43 45 48 49 43 43 43 44 43 42 40 38 38 40 41 37 28 15 2 355
142 146 149 148 133 128 109 96 73 57 55 54 53 51 52 50 41 43 43 42 38 37 39 40 37 38 40 41 40 39 41 42 42 43 41 40 39 39 40 43 42 38 27 16
124 123 129 100 82 94 67 37 31 43 40 30 24 25 27 27 25 24 25 29 30 30 30 35 35 32 34 36 35 36 36 36 38 40 40 40 40 40 41 44 47 47 45 41
321 325 329 330 324 327 333 341 347 352 355 1 2 3 5 8 8 10 12 11 16 17 20 26 28 28 30 31 31 31 32 32 33 36 37 39 39 40 41 42 46 50 51 52
315 317 320 317 318 324 330 335 333 337 340 343 346 349 348 349 350 353 356 360 3 6 8 10 16 20 22 25 24 25 27 28 29 29 32 34 36 37 39 40 42 46 50 55
309 311 315 316 316 315 313 314 320 325 330 331 329 331 334 337 337 338 343 346 350 352 356 0 3 5 9 14 17 19 21 22 23 24 26 29 32 33 35 37 39 43 49 53